Kuiper-00093

operational
NORAD ID: 64838 Int'l Des: 2025-151 Owner: KUIP Country: US Constellation: kuiper
LEOCIRCULAR

关于 Kuiper-00093

正在加载描述...

实时位置

正在加载3D地球...

即将过境

高度历史

Altitude vs Time

uPlot chart will show altitude changes over time

两行轨道根数

1 64838U 25151Y 25340.00279633 .00001134 00000-0 17782-3 0 9994
2 64838 51.9010 347.3614 0013787 299.7011 60.2578 14.79954476 21535
Epoch: Dec 6, 2025 • Age: 29 hours

当前状态

高度 626.2 km
速度 7.55 km/s
星下点 -18.25°S, 173.85°E
发射日期 Jul 16, 2025
运行时间 0.3 years
类型 internet

技术详情

分类 Payload
质量 490.00 kg
干质量 490.00 kg
总质量 490.00 kg
长度 1.80 m
直径 0.70 m
跨度 5.00 m
形状 Box + 2 pan
制造商 KUIP
平台类型 Kuiper
阶段状态 In Orbit
所有者/国家 KUIP/US

大型星座

Loading constellations...